Location: St. Andrews
(45.0670°N, 67.0330°W)
Time: 01:49:51
(UTC-03:00)

Amateur Radio Satellites - All Passes

Search period start: 31 October 2014 01:19
Search period end: 01 November 2014 01:19
Location: St. Andrews, 45.0670°N, 67.0330°W

Satellite Date Start Highest point End Downlink Frequencies (MHz)
Time Altitude Azimuth
Oscar 16 31 Oct 01:34:49 01:35:07 10° 86° (E) 01:35:24 437.025 USB, Beacon 2401.1428
RS-15 31 Oct 01:45:28 01:54:40 30° 344° (NNW) 02:04:02 29.354 - 29.394 USB, Beacon 29.352 USB
PCSat 31 Oct 02:05:53 02:09:20 17° 105° (ESE) 02:12:48 145.825 MHz
AO-Echo 31 Oct 02:13:01 02:15:46 14° 88° (E) 02:18:29 ?
Oscar 19 31 Oct 02:23:32 02:28:03 30° 95° (E) 02:32:31 437.125 CW, 437.150 USB
JAS-1B 31 Oct 02:53:48 03:00:45 58° 102° (ESE) 03:09:01 435.800 - 435.900 CW/SSB
AO-27 31 Oct 02:58:23 03:02:47 27° 94° (E) 03:07:09 436.795 MHz FM
Oscar 16 31 Oct 03:10:07 03:15:16 81° 104° (ESE) 03:20:24 437.025 USB, Beacon 2401.1428
Gurwin Techsat 1B 31 Oct 03:10:49 03:14:35 19° 91° (E) 03:18:20 435.225 FM
TMSAT-1 31 Oct 03:17:54 03:21:15 17° 90° (E) 03:24:34 436.925 FM
Sapphire 31 Oct 03:24:58 03:30:20 72° 118° (ESE) 03:35:46 437.095 MHz 1200 baud AX-25 AFSK
Uribyol 2 31 Oct 03:41:58 03:47:10 68° 102° (ESE) 03:52:19 436.500 FM
PCSat 31 Oct 03:46:42 03:52:07 74° 303° (WNW) 03:57:34 145.825 MHz
ITAMSAT 1 31 Oct 03:49:45 03:55:00 75° 103° (ESE) 04:00:12 435.822 SSB
AO-Echo 31 Oct 03:49:49 03:55:10 82° 285° (WNW) 04:00:27 ?
RS-15 31 Oct 04:01:58 04:11:28 31° 20° (NNE) 04:21:11 29.354 - 29.394 USB, Beacon 29.352 USB
Oscar 19 31 Oct 04:02:45 04:07:25 37° 293° (WNW) 04:12:05 437.125 CW, 437.150 USB
AO-7 31 Oct 04:05:31 04:09:42 15° 86° (E) 04:13:53 29.400 - 29.500 MHz
AO-27 31 Oct 04:37:31 04:42:27 43° 292° (WNW) 04:47:20 436.795 MHz FM
JAS-1B 31 Oct 04:45:09 04:51:07 33° 297° (WNW) 04:58:02 435.800 - 435.900 CW/SSB
Gurwin Techsat 1B 31 Oct 04:49:43 04:54:58 60° 289° (WNW) 05:00:10 435.225 FM
Oscar 16 31 Oct 04:51:02 04:53:58 16° 302° (WNW) 04:56:53 437.025 USB, Beacon 2401.1428
TMSAT-1 31 Oct 04:56:24 05:01:41 69° 287° (WNW) 05:06:56 436.925 FM
Sapphire 31 Oct 05:10:00 05:14:18 24° 319° (NW) 05:18:39 437.095 MHz 1200 baud AX-25 AFSK
OPAL 31 Oct 05:15:34 05:20:29 50° 68° (ENE) 05:25:21 ?
Uribyol 2 31 Oct 05:22:36 05:26:06 19° 301° (WNW) 05:29:36 436.500 FM
AO-Echo 31 Oct 05:30:34 05:33:05 14° 304° (NW) 05:35:36 ?
ITAMSAT 1 31 Oct 05:30:35 05:33:53 17° 302° (WNW) 05:37:11 435.822 SSB
PCSat 31 Oct 05:32:57 05:36:29 17° 325° (NW) 05:40:02 145.825 MHz
STRAND 1 31 Oct 05:36:42 05:37:51 11° 54° (NE) 05:38:59 ?
Uosat F 31 Oct 05:40:53 05:45:47 48° 100° (E) 05:50:38 435.120 FM
JAS-2 31 Oct 05:54:27 06:01:10 30° 91° (E) 06:07:41 435.800 - 435.900 CW/SSB, 435.910 FM
AO-7 31 Oct 05:55:34 06:03:55 72° 106° (ESE) 06:12:15 29.400 - 29.500 MHz
Saudisat 1A 31 Oct 06:08:36 06:12:19 27° 115° (ESE) 06:16:03 436.775 MHz
RS-15 31 Oct 06:15:08 06:26:16 69° 49° (NE) 06:37:50 29.354 - 29.394 USB, Beacon 29.352 USB
TMSAT-1 31 Oct 06:39:07 06:40:38 11° 306° (NW) 06:42:10 436.925 FM
OPAL 31 Oct 06:55:38 06:59:36 23° 264° (W) 07:03:33 ?
Hamsat 31 Oct 07:10:23 07:14:34 60° 101° (E) 07:18:46 145.90 MHz
STRAND 1 31 Oct 07:10:59 07:16:04 68° 72° (ENE) 07:21:13 ?
Uosat F 31 Oct 07:20:17 07:24:17 24° 297° (WNW) 07:28:16 435.120 FM
JAS-2 31 Oct 07:38:51 07:46:38 66° 290° (WNW) 07:54:13 435.800 - 435.900 CW/SSB, 435.910 FM
MaSat-1 31 Oct 07:39:33 07:41:36 21° 54° (NE) 07:43:33 437.345 MHz
Saudisat 1A 31 Oct 07:47:37 07:51:44 39° 314° (NW) 07:55:54 436.775 MHz
AO-7 31 Oct 07:49:08 07:56:04 31° 306° (NW) 08:03:01 29.400 - 29.500 MHz
SO-67 31 Oct 08:17:40 08:20:59 42° 99° (E) 08:24:16 435.3500 MHz FM
RS-15 31 Oct 08:28:04 08:38:00 39° 252° (WSW) 08:48:20 29.354 - 29.394 USB, Beacon 29.352 USB
Hamsat 31 Oct 08:47:44 08:50:03 15° 298° (WNW) 08:52:22 145.90 MHz
HO-68 31 Oct 08:48:52 08:51:40 12° 85° (E) 08:54:27 435.675 MHz FM
STRAND 1 31 Oct 08:52:35 08:55:46 16° 270° (W) 08:58:57 ?
MaSat-1 31 Oct 09:15:59 09:16:43 11° 254° (WSW) 09:17:26 437.345 MHz
JAS-2 31 Oct 09:25:39 09:30:14 17° 310° (NW) 09:34:49 435.800 - 435.900 CW/SSB, 435.910 FM
Saudisat 1A 31 Oct 09:32:06 09:32:32 10° 335° (NNW) 09:32:58 436.775 MHz
SO-67 31 Oct 09:51:55 09:53:35 13° 295° (WNW) 09:55:15 435.3500 MHz FM
KITSAT 1 31 Oct 09:55:06 09:58:29 13° 98° (E) 10:01:51 435.175 FM
ISS 31 Oct 10:07:59 10:09:31 13° 132° (SE) 10:11:03 145.800 FM
Sapphire 31 Oct 10:28:25 10:32:16 19° 37° (NE) 10:36:07 437.095 MHz 1200 baud AX-25 AFSK
HO-68 31 Oct 10:33:25 10:40:38 70° 104° (ESE) 10:47:47 435.675 MHz FM
PCSat 31 Oct 10:49:49 10:54:23 26° 43° (NE) 10:58:55 145.825 MHz
UKube-1 31 Oct 10:51:22 10:55:31 40° 99° (E) 10:59:37 145.840 MHz, 145.915 MHz
ZACube-1 31 Oct 11:00:25 11:03:41 21° 93° (E) 11:06:53 437.345 MHz
Oscar 11 31 Oct 11:26:27 11:30:47 85° 284° (WNW) 11:35:06 145.825 FM, Beacon 2401.500 USB
SO-50 31 Oct 11:35:03 11:39:06 34° 116° (ESE) 11:43:15 436.795 FM
ISS 31 Oct 11:42:25 11:45:44 84° 149° (SSE) 11:49:04 145.800 FM
FUNcube-1 31 Oct 11:42:43 11:46:54 61° 101° (E) 11:51:00 145.950 - 145.970 MHz USB
KITSAT 1 31 Oct 11:44:22 11:52:20 67° 117° (ESE) 12:00:20 435.175 FM
Sapphire 31 Oct 12:11:02 12:16:31 86° 58° (ENE) 12:21:57 437.095 MHz 1200 baud AX-25 AFSK
HO-68 31 Oct 12:21:58 12:27:45 27° 304° (NW) 12:33:31 435.675 MHz FM
UOSAT-12 31 Oct 12:23:34 12:24:22 10° 106° (ESE) 12:25:10 437.025 FM, 437.400 FM
UKube-1 31 Oct 12:28:06 12:31:27 22° 296° (WNW) 12:34:47 145.840 MHz, 145.915 MHz
PCSat 31 Oct 12:32:51 12:38:12 61° 243° (WSW) 12:43:31 145.825 MHz
ZACube-1 31 Oct 12:36:21 12:40:12 35° 291° (WNW) 12:43:59 437.345 MHz
Oscar 16 31 Oct 12:51:37 12:55:22 21° 61° (ENE) 12:59:08 437.025 USB, Beacon 2401.1428
Saudisat 1A 31 Oct 12:55:10 12:56:13 11° 26° (NNE) 12:57:17 436.775 MHz
Oscar 11 31 Oct 13:06:06 13:06:14 10° 302° (WNW) 13:06:22 145.825 FM, Beacon 2401.500 USB
SO-50 31 Oct 13:15:26 13:19:37 35° 316° (NW) 13:23:56 436.795 FM
ISS 31 Oct 13:19:43 13:22:42 30° 348° (NNW) 13:25:42 145.800 FM
FUNcube-1 31 Oct 13:20:34 13:22:47 14° 299° (WNW) 13:24:58 145.950 - 145.970 MHz USB
Uribyol 2 31 Oct 13:24:34 13:28:08 19° 60° (ENE) 13:31:43 436.500 FM
AO-Echo 31 Oct 13:27:27 13:31:18 23° 62° (ENE) 13:35:15 ?
ITAMSAT 1 31 Oct 13:32:14 13:36:01 21° 60° (ENE) 13:39:48 435.822 SSB
KITSAT 1 31 Oct 13:40:55 13:48:17 37° 320° (NW) 13:55:42 435.175 FM
Oscar 19 31 Oct 13:42:14 13:47:13 54° 71° (ENE) 13:52:13 437.125 CW, 437.150 USB
JAS-1B 31 Oct 13:43:06 13:48:36 52° 69° (ENE) 13:54:11 435.800 - 435.900 CW/SSB
Sapphire 31 Oct 13:56:18 13:59:10 15° 257° (WSW) 14:02:02 437.095 MHz 1200 baud AX-25 AFSK
UOSAT-12 31 Oct 13:59:02 14:03:41 81° 124° (SE) 14:08:26 437.025 FM, 437.400 FM
AO-27 31 Oct 14:18:16 14:23:17 50° 69° (ENE) 14:28:20 436.795 MHz FM
Oscar 16 31 Oct 14:29:14 14:34:19 58° 259° (W) 14:39:24 437.025 USB, Beacon 2401.1428
Saudisat 1A 31 Oct 14:32:43 14:36:57 42° 47° (NE) 14:41:10 436.775 MHz
Gurwin Techsat 1B 31 Oct 14:33:32 14:38:22 37° 67° (ENE) 14:43:14 435.225 FM
TMSAT-1 31 Oct 14:40:11 14:44:50 32° 65° (ENE) 14:49:30 436.925 FM
ISS 31 Oct 14:57:06 15:00:02 27° 9° (N) 15:02:58 145.800 FM
SO-50 31 Oct 15:00:52 15:01:36 10° 338° (NNW) 15:02:20 436.795 FM
Uribyol 2 31 Oct 15:01:53 15:07:05 67° 258° (WSW) 15:12:19 436.500 FM
AO-Echo 31 Oct 15:04:48 15:09:41 53° 260° (W) 15:14:45 ?
AO-7 31 Oct 15:06:05 15:12:49 29° 53° (NE) 15:19:34 29.400 - 29.500 MHz
ITAMSAT 1 31 Oct 15:09:54 15:15:03 61° 259° (WSW) 15:20:15 435.822 SSB
Uosat F 31 Oct 15:21:01 15:23:04 13° 56° (NE) 15:25:07 435.120 FM
Oscar 19 31 Oct 15:23:06 15:26:53 21° 268° (W) 15:30:42 437.125 CW, 437.150 USB
JAS-1B 31 Oct 15:35:25 15:39:45 22° 268° (W) 15:44:07 435.800 - 435.900 CW/SSB
UOSAT-12 31 Oct 15:40:57 15:44:26 20° 324° (NW) 15:47:56 437.025 FM, 437.400 FM
KITSAT 1 31 Oct 15:41:19 15:46:26 18° 348° (NNW) 15:51:33 435.175 FM
AO-27 31 Oct 15:58:58 16:03:04 23° 267° (W) 16:07:11 436.795 MHz FM
JAS-2 31 Oct 16:10:54 16:14:52 17° 50° (NE) 16:19:03 435.800 - 435.900 CW/SSB, 435.910 FM
Saudisat 1A 31 Oct 16:12:41 16:16:19 25° 246° (WSW) 16:19:57 436.775 MHz
Gurwin Techsat 1B 31 Oct 16:13:40 16:18:22 32° 265° (W) 16:23:07 435.225 FM
TMSAT-1 31 Oct 16:19:47 16:24:40 37° 263° (W) 16:29:35 436.925 FM
ISS 31 Oct 16:33:45 16:37:06 75° 27° (NNE) 16:40:26 145.800 FM
Uosat F 31 Oct 16:56:00 17:01:02 81° 74° (ENE) 17:06:07 435.120 FM
AO-7 31 Oct 16:56:36 17:04:52 77° 253° (WSW) 17:13:13 29.400 - 29.500 MHz
KITSAT 1 31 Oct 17:39:55 17:45:31 20° 19° (NNE) 17:51:06 435.175 FM
JAS-2 31 Oct 17:52:12 17:58:32 74° 72° (ENE) 18:05:46 435.800 - 435.900 CW/SSB, 435.910 FM
Hamsat 31 Oct 18:05:26 18:09:31 54° 73° (ENE) 18:13:36 145.90 MHz
ISS 31 Oct 18:11:09 18:13:28 18° 225° (SW) 18:15:46 145.800 FM
SO-50 31 Oct 18:24:46 18:27:22 14° 29° (NNE) 18:30:00 436.795 FM
Uosat F 31 Oct 18:38:09 18:40:27 13° 272° (W) 18:42:44 435.120 FM
SO-67 31 Oct 18:52:36 18:55:11 20° 68° (ENE) 18:57:46 435.3500 MHz FM
AO-7 31 Oct 18:54:25 18:59:01 16° 273° (W) 19:03:38 29.400 - 29.500 MHz
OPAL 31 Oct 19:01:58 19:06:57 79° 106° (ESE) 19:11:54 ?
STRAND 1 31 Oct 19:20:31 19:24:13 20° 92° (E) 19:27:54 ?
HO-68 31 Oct 19:20:35 19:24:19 15° 47° (NE) 19:28:03 435.675 MHz FM
KITSAT 1 31 Oct 19:35:25 19:43:12 48° 46° (NE) 19:50:56 435.175 FM
JAS-2 31 Oct 19:39:40 19:44:26 22° 274° (W) 19:49:38 435.800 - 435.900 CW/SSB, 435.910 FM
Hamsat 31 Oct 19:43:33 19:45:48 14° 270° (W) 19:48:04 145.90 MHz
SO-50 31 Oct 20:04:11 20:08:57 57° 50° (NE) 20:13:46 436.795 FM
AO-40 31 Oct 20:09:27 23:20:52 25° 126° (SE) 00:42:44 Beacon 2401.320
SO-67 31 Oct 20:25:06 20:28:01 25° 265° (W) 20:30:57 435.3500 MHz FM
OPAL 31 Oct 20:42:20 20:45:13 16° 304° (NW) 20:48:06 ?
RS-15 31 Oct 20:42:55 20:52:06 32° 105° (ESE) 21:01:12 29.354 - 29.394 USB, Beacon 29.352 USB
UOSAT-12 31 Oct 20:47:23 20:51:06 22° 38° (NE) 20:54:48 437.025 FM, 437.400 FM
Oscar 11 31 Oct 20:50:37 20:51:55 11° 59° (ENE) 20:53:14 145.825 FM, Beacon 2401.500 USB
STRAND 1 31 Oct 20:58:43 21:03:47 57° 289° (WNW) 21:08:47 ?
HO-68 31 Oct 21:03:38 21:10:41 64° 68° (ENE) 21:17:47 435.675 MHz FM
KITSAT 1 31 Oct 21:31:00 21:38:39 48° 247° (WSW) 21:46:16 435.175 FM
SO-50 31 Oct 21:45:29 21:49:10 22° 248° (WSW) 21:52:52 436.795 FM
UKube-1 31 Oct 21:48:32 21:52:41 46° 70° (ENE) 21:56:52 145.840 MHz, 145.915 MHz
ZACube-1 31 Oct 21:58:38 22:02:18 25° 66° (ENE) 22:05:56 437.345 MHz
Oscar 11 31 Oct 22:23:07 22:27:26 86° 257° (WSW) 22:31:47 145.825 FM, Beacon 2401.500 USB
UOSAT-12 31 Oct 22:27:01 22:31:43 69° 238° (WSW) 22:36:20 437.025 FM, 437.400 FM
FUNcube-1 31 Oct 22:40:29 22:44:57 64° 74° (ENE) 22:49:20 145.950 - 145.970 MHz USB
MaSat-1 31 Oct 22:50:23 22:54:12 63° 116° (ESE) 22:57:37 437.345 MHz
RS-15 31 Oct 22:52:26 23:03:25 76° 308° (NW) 23:14:27 29.354 - 29.394 USB, Beacon 29.352 USB
HO-68 31 Oct 22:53:00 22:58:52 27° 267° (W) 23:04:48 435.675 MHz FM
UKube-1 31 Oct 23:26:04 23:29:06 18° 267° (W) 23:32:10 145.840 MHz, 145.915 MHz
ZACube-1 31 Oct 23:34:22 23:38:33 36° 263° (W) 23:42:39 437.345 MHz
FUNcube-1 01 Nov 00:19:23 00:21:43 14° 270° (W) 00:24:02 145.950 - 145.970 MHz USB
MaSat-1 01 Nov 00:28:09 00:29:50 13° 311° (NW) 00:31:26 437.345 MHz
